Home   Weather   Cedar Rapids   Past weeks

Flag for USA Past Weather in Cedar Rapids, Iowa, USA — Yesterday and Last 2 Weeks

Now
40 °F

Passing clouds.


Feels Like: 32 °F
Forecast: 33 / 50 °F
Wind: 14 mph from East

Location: Cedar Rapids Municipal Airport

Current Time: Apr 28, 2017 at 9:35:48 am

Latest Report: Apr 28, 2017 at 8:52 am


Visibility: 10 mi

Pressure: 29.91 "Hg

Humidity: 73%

Dew Point: 32 °F

Location of Cedar RapidsLocation

Past Weather in Cedar Rapids — Graph

°F

Cedar Rapids Temperature Yesterday

Maximum temperature yesterday: 44 °F (at 5:52 pm)
Minimum temperature yesterday: 35 °F (at 10:52 pm)
Average temperature yesterday: 39 °F

High & Low Weather Summary for the Past Weeks

 TemperatureHumidityPressure
High78 °F (Apr 15, 2:52 pm)100% (Apr 15, 9:05 pm)30.23 "Hg (Apr 15, 9:05 pm)
Low34 °F (Apr 28, 1:52 am)17% (Apr 24, 2:52 pm)29.36 "Hg (Apr 26, 3:52 am)
Average56 °F70%29.91 "Hg
* Reported Apr 13 7:52 am — Apr 28 7:52 am, Cedar Rapids, Weather by CustomWeather, © 2017

Note: Actual official high and low records may vary slightly from our data, if they occured in-between our weather recording intervals... More about our weather records

Advertising

Cedar Rapids Weather History for the Previous 24 Hours

Scroll right to see more
 ConditionsComfort  
Time TempWeatherWind HumidityBarometerVisibility
7:52 am
Fri, Apr 28
37 °FPassing clouds.9 mph76%29.93 "Hg10 mi
6:52 am35 °FPartly sunny.7 mph85%29.89 "Hg10 mi
5:52 am36 °FOvercast.10 mph85%29.89 "Hg10 mi
4:52 am36 °FPassing clouds.10 mph89%29.88 "Hg10 mi
3:52 am36 °FOvercast.5 mph89%29.88 "Hg10 mi
2:52 am36 °FClear.7 mph85%29.88 "Hg10 mi
1:52 am34 °FClear.No wind92%29.88 "Hg10 mi
12:52 am35 °FClear.No wind88%29.88 "Hg10 mi
11:52 pm
Thu, Apr 27
36 °FClear.No wind89%29.86 "Hg10 mi
10:52 pm35 °FClear.3 mph92%29.86 "Hg10 mi
9:52 pm37 °FClear.5 mph89%29.84 "Hg10 mi
8:52 pm38 °FClear.6 mph86%29.81 "Hg10 mi
7:52 pm41 °FSunny.8 mph80%29.78 "Hg10 mi
6:52 pm44 °FPassing clouds.13 mph71%29.75 "Hg10 mi
5:52 pm44 °FOvercast.15 mph71%29.73 "Hg10 mi
4:52 pm43 °FOvercast.16 mph74%29.72 "Hg10 mi
3:52 pm43 °FOvercast.16 mph74%29.71 "Hg10 mi
2:52 pm42 °FOvercast.21 mph76%29.70 "Hg10 mi
1:52 pm40 °FOvercast.20 mph77%29.68 "Hg10 mi
12:52 pm39 °FOvercast.20 mph79%29.67 "Hg10 mi
11:52 am39 °FMostly cloudy.15 mph79%29.66 "Hg10 mi
10:52 am36 °FFog.18 mph97%29.65 "Hg6 mi
9:52 am36 °FLight rain. Fog.16 mph97%29.62 "Hg4 mi
Weather by CustomWeather, © 2017

See weather overviewHow to use our weather pages